Regional Weather Roundup
Issued by NWS

Home | Current Version | Previous Version | Text Only | Print | Product List | Glossary Off
Versions: 1 2 3 4 5 6 7 8 9 10 11 12 13 14 15 16 17 18 19 20 21 22 23 24 25 26 27 28 29 30 31 32 33 34 35 36 37 38 39 40 41 42 43 44 45 46 47 48 49 50

000
ASUS43 KMPX 300610
RWRMN
WEATHER ROUNDUP FOR MINNESOTA
NATIONAL WEATHER SERVICE TWIN CITIES/CHANHASSEN MN
100 AM CDT MON MAY 30 2016


NOTE: "FAIR" INDICATES FEW OR NO CLOUDS BELOW 12,000 FEET WITH NO
SIGNIFICANT WEATHER AND/OR OBSTRUCTIONS TO VISIBILITY. N/A MEANS
CURRENT SKY AND/OR WEATHER CONDITIONS ARE NOT AVAILABLE.

MNZ060>063-068>070-300700-
   Twin Cities Metro

CITY           SKY/WX    TMP DP  RH WIND       PRES   REMARKS
TWIN CITIES    CLEAR     65  57  75 CALM      29.99S
6HR MIN TEMP:  65; 6HR MAX TEMP:  77;

ST PAUL        CLEAR     60  58  92 CALM      29.99S
CRYSTAL        CLEAR     59  56  89 CALM      29.98R FOG
BLAINE         FOG       61  59  94 CALM      29.99S VSB 1/2
EDEN PRAIRIE   CLEAR     63  58  83 CALM      29.99R
6HR MIN TEMP:  63; 6HR MAX TEMP:  76;

SOUTH ST PAUL  CLEAR     63  57  81 CALM      29.99S
LAKE ELMO      FOG       55  55 100 CALM      30.00S VSB 1
$$
MNZ001>005-007-008-013>017-022>024-027-028-300700-
   Northwest Minnesota

CITY           SKY/WX    TMP DP  RH WIND       PRES   REMARKS
BEMIDJI        CLEAR     51  49  95 CALM      29.95S
HALLOCK        CLEAR     55  52  88 S5        29.89S
ROSEAU         CLEAR     54  48  82 CALM      29.91S
WARROAD        PTCLDY    52  48  87 CALM      29.91S
THIEF RVR FALL CLEAR     55  50  82 CALM      29.94S
CROOKSTON      CLEAR     55  52  88 S5        29.94R
FOSSTON        CLEAR     48  48 100 S6        29.95S
DETROIT LAKES  CLEAR     55  54  94 CALM      29.98R
MOORHEAD       PTCLDY    63  48  59 S6        29.96R
PARK RAPIDS    PTCLDY    52  49  89 CALM      29.97R FOG
MAHNOMEN       FAIR      55  50  83 S6        29.96R
$$
MNZ006-009>011-018-025>026-300700-
   North Central Minnesota

CITY           SKY/WX    TMP DP  RH WIND       PRES   REMARKS
BAUDETTE       CLEAR     49  48  97 W3        29.90F
FLAG ISLAND    CLEAR     57  52  82 NW5       29.89R
INTL FALLS     CLEAR     47  45  93 CALM      29.90S
6HR MIN TEMP:  46; 6HR MAX TEMP:  67;

WASKISH        FOG       54  52  94 CALM      29.93R VSB 3/4
BIG FORK       CLEAR     48  46  93 CALM      29.94S
LONGVILLE      CLEAR     48  48 100 CALM      29.96R FOG
GRAND RAPIDS   CLEAR     51  49  92 S6        29.96S
CRANE LAKE     CLEAR     46  46 100 CALM      29.91S
ORR            CLEAR     52  48  87 CALM      29.90R
COOK           CLEAR     52  50  93 CALM      29.92S
WALKER         FAIR      49  48  97 CALM      29.96R
$$
MNZ012-019>021-037-300700-
   Northeast Minnesota

CITY           SKY/WX    TMP DP  RH WIND       PRES   REMARKS
DULUTH         CLEAR     52  49  89 W9        29.94R
6HR MIN TEMP:  52; 6HR MAX TEMP:  68;

ELY            PTCLDY    54  52  94 CALM      29.90S
HIBBING        CLEAR     43  43 100 SW3       29.93S FOG
EVELETH        CLEAR     52  52 100 CALM      29.94S
DULUTH HARBOR  CLEAR     57  54  88 SW8       29.94R
TWO HARBORS    CLEAR     57  54  88 CALM      29.90S
SILVER BAY     CLEAR     54  52  94 CALM      29.89S
GRAND MARAIS     N/A     49  47  93 W3        29.87S
G MARAIS ARPRT CLEAR     52  48  87 SW5       29.89S
$$
MNZ029>031-032-039>041-046>048-054>057-064-300700-
   West Central Minnesota

CITY           SKY/WX    TMP DP  RH WIND       PRES   REMARKS
FERGUS FALLS   PTCLDY    61  48  63 S5        29.94S
WHEATON        PTCLDY    63  46  55 S7        29.99S
MORRIS         CLEAR     57  45  62 S3        29.98S
ALEXANDRIA     CLEAR     56  49  77 CALM      30.00S
ELBOW LAKE     FAIR      57  49  75 S7        29.99S
WADENA         PTCLDY    54  48  82 CALM      29.98R
GLENWOOD       CLEAR     59  52  77 S3        30.01R
APPLETON       PTCLDY    59  48  67 CALM      29.98F
ORTONVILLE     CLEAR     61  48  63 CALM      29.98F
MADISON        CLEAR     57  48  72 SW6       29.99F
WILLMAR        FAIR      57  54  88 CALM      30.01S
$$
MNZ033>034-036-042>043-049>051-058-059-300700-
   Central Minnesota

CITY           SKY/WX    TMP DP  RH WIND       PRES   REMARKS
ST CLOUD       CLEAR     54  53  97 CALM      29.99S
6HR MIN TEMP:  54; 6HR MAX TEMP:  74;

SAUK CENTRE    FAIR      54  50  87 CALM      30.00S
PAYNESVILLE    CLEAR     54  53  97 CALM      30.01S
AITKIN         CLEAR     52  46  82 CALM      29.95S HAZE
PINE RIVER     CLEAR     50  50 100 CALM      30.00R FOG
BRAINERD       CLEAR     50  50 100 S3        29.98R
STAPLES        PTCLDY    52  50  93 S3        29.98S
LONG PRAIRIE   FAIR      52  52 100 CALM      30.00S
LITTLE FALLS   CLEAR     52  50  93 CALM      29.99S
LITCHFIELD     CLEAR     61  55  82 CALM      30.01S
BUFFALO        CLEAR     57  55  90 CALM      30.01S
MAPLE LAKE     CLEAR     56  55  97 CALM      30.01S
HUTCHINSON     CLEAR     58  58  99 CALM      30.02S FOG
$$
MNZ037-044-045-052-053-300700-
   East Central Minnesota

CITY           SKY/WX    TMP DP  RH WIND       PRES   REMARKS
PRINCETON      CLEAR     54  54 100 CALM      30.00R
MORA           PTCLDY    54  52  94 CALM      30.00S
CAMBRIDGE      PTCLDY    57  50  77 CALM      29.98R
RUSH CITY      MOCLDY    53  52  96 CALM      29.98S FOG
MOOSE LAKE     PTCLDY    50  48  93 CALM      29.95S
HINCKLEY       FAIR      52  52 100 CALM      29.97F
CLOQUET        CLEAR     55  48  76 W5        29.95S
MCGREGOR       CLEAR     54  50  87 CALM      29.96S
$$
MNZ071>073-080-081-089-090-097-098-300700-
   Southwest Minnesota

CITY           SKY/WX    TMP DP  RH WIND       PRES   REMARKS
MONTEVIDEO     CLEAR     61  46  59 CALM      30.01F
GRANITE FALLS  CLEAR     61  52  71 CALM      30.01F
CANBY          CLEAR     65  53  63 SW3       30.01F
MARSHALL       CLEAR     59  53  80 S7        30.01F
REDWOOD FALLS  CLEAR     60  50  69 E3        30.00S
OLIVIA         CLEAR     61  50  67 CALM      30.00S
PIPESTONE      CLOUDY    63  52  67 CALM      30.03F
WINDOM         CLEAR     57  52  82 CALM      30.03S
WORTHINGTON    CLEAR     60  55  83 SW3       30.05S
JACKSON        CLEAR     61  52  72 CALM      30.04S
TRACY          CLEAR     62  54  75 SW6       30.02F
SLAYTON        CLEAR     60  51  72 CALM      30.04F
$$
MNZ065>067-074>077-082>085-091>093-300700-
   South Central Minnesota

CITY           SKY/WX    TMP DP  RH WIND       PRES   REMARKS
MANKATO        CLEAR     63  55  77 CALM      30.01S
NEW ULM        CLEAR     61  54  77 N6        30.01S
ST JAMES       CLEAR     55  48  76 CALM      30.02S
FAIRMONT       CLEAR     61  52  72 W3        30.02S
GLENCOE        CLEAR     60  60  99 CALM      30.00S
FARIBAULT      MOCLDY    57  57 100 CALM      30.01F VSB 1/4
OWATONNA       CLEAR     61  57  88 CALM      30.02S
WASECA         CLEAR     55  54  94 CALM      30.03S
ALBERT LEA     CLEAR     61  54  77 CALM      30.03S
$$
MNZ078>079-086>088-094>096-300700-
   Southeast Minnesota

CITY           SKY/WX    TMP DP  RH WIND       PRES   REMARKS
ROCHESTER      CLEAR     62  58  86 W6        30.02F
6HR MIN TEMP:  62; 6HR MAX TEMP:  74;

RED WING       CLEAR     57  55  94 CALM      29.98F
STANTON        CLEAR     59  56  88 CALM      30.00R
DODGE CENTER   PTCLDY    57  55  94 SW3       30.02F
WINONA         CLEAR     61  59  94 CALM      30.00S
AUSTIN         CLEAR     61  54  77 CALM      30.02S
PRESTON        CLEAR     61  56  85 W3        30.03S
$$
ABBREVIATIONS USED IN REMARKS
   TC - TEMPERATURES IN CELSIUS
  WCI - WIND CHILL INDEX
   HX - HEAT INDEX
  VSB - VISIBILITY
$$




USA.gov is the U.S. government's official web portal to all federal, state and local government web resources and services.